BCS3TW EIDW-EGNX

Flight info

Callsign BCS3TW
Flight time 0h 43m
Altitude 27000
Route DEXEN2J DEXEN UY124 DOLOP
Aircraft B738/M-SDE2E3FGHIRWXY/LB1

Departure

Time 2026-05-05 07:52
Airport Dublin Airport (EIDW)

Arrival

Time 2026-05-05 08:36
Airport East Midlands Airport (EGNX)
Time Latitude Longitude Altitude Speed Heading
2026-05-05 07:36 53.42429 -6.26230 224 ft 0 kts 185°
2026-05-05 07:45 53.42426 -6.26226 225 ft 1 kts 151°
2026-05-05 07:45 53.42426 -6.26217 225 ft 1 kts 92°
2026-05-05 07:45 53.42436 -6.26206 224 ft 4 kts 38°
2026-05-05 07:46 53.42470 -6.26192 224 ft 7 kts
2026-05-05 07:46 53.42510 -6.26137 224 ft 9 kts 86°
2026-05-05 07:46 53.42502 -6.26000 224 ft 15 kts 95°
2026-05-05 07:46 53.42483 -6.25816 224 ft 18 kts 72°
2026-05-05 07:47 53.42568 -6.25643 224 ft 21 kts 46°
2026-05-05 07:47 53.42684 -6.25445 221 ft 26 kts 45°
2026-05-05 07:47 53.42797 -6.25270 224 ft 15 kts 20°
2026-05-05 07:47 53.42898 -6.25318 224 ft 17 kts 338°
2026-05-05 07:48 53.43014 -6.25404 226 ft 20 kts 338°
2026-05-05 07:48 53.43102 -6.25465 224 ft 22 kts 336°
2026-05-05 07:48 53.43250 -6.25574 224 ft 25 kts 335°
2026-05-05 07:48 53.43381 -6.25664 224 ft 9 kts 355°
2026-05-05 07:49 53.43411 -6.25586 224 ft 10 kts 94°
2026-05-05 07:49 53.43400 -6.25444 225 ft 15 kts 97°
2026-05-05 07:49 53.43391 -6.25252 224 ft 19 kts 94°
2026-05-05 07:49 53.43379 -6.24999 224 ft 24 kts 95°
2026-05-05 07:50 53.43363 -6.24703 224 ft 27 kts 96°
2026-05-05 07:50 53.43343 -6.24377 226 ft 28 kts 95°
2026-05-05 07:50 53.43325 -6.24065 224 ft 26 kts 95°
2026-05-05 07:50 53.43340 -6.23888 225 ft 13 kts 44°
2026-05-05 07:51 53.43427 -6.23857 222 ft 13 kts 358°
2026-05-05 07:51 53.43492 -6.23930 221 ft 11 kts 281°
2026-05-05 07:51 53.43502 -6.24105 224 ft 32 kts 276°
2026-05-05 07:51 53.43544 -6.24876 225 ft 100 kts 274°
2026-05-05 07:52 53.43631 -6.26360 249 ft 151 kts 278°
2026-05-05 07:52 53.43718 -6.28193 768 ft 160 kts 276°
2026-05-05 07:52 53.43773 -6.30053 1489 ft 163 kts 275°
2026-05-05 07:52 53.44034 -6.31853 2167 ft 159 kts 311°
2026-05-05 07:53 53.44852 -6.33227 2584 ft 181 kts 315°
2026-05-05 07:53 53.45766 -6.34909 2848 ft 209 kts 312°
2026-05-05 07:53 53.46775 -6.36879 3104 ft 235 kts 311°
2026-05-05 07:53 53.47858 -6.39057 3594 ft 248 kts 310°
2026-05-05 07:54 53.48967 -6.41327 4308 ft 254 kts 310°
2026-05-05 07:54 53.50085 -6.43630 5095 ft 255 kts 310°
2026-05-05 07:54 53.51038 -6.46162 5829 ft 262 kts 290°
2026-05-05 07:54 53.51225 -6.49216 6581 ft 269 kts 263°
2026-05-05 07:55 53.50574 -6.52168 7329 ft 275 kts 237°
2026-05-05 07:55 53.49173 -6.54380 8093 ft 282 kts 210°
2026-05-05 07:55 53.47291 -6.55337 8767 ft 288 kts 184°
2026-05-05 07:55 53.45321 -6.54781 9074 ft 293 kts 156°
2026-05-05 07:56 53.43706 -6.52706 9077 ft 295 kts 127°
2026-05-05 07:56 53.42776 -6.49671 9320 ft 296 kts 105°
2026-05-05 07:56 53.42246 -6.46305 10108 ft 298 kts 102°
2026-05-05 07:56 53.41762 -6.42872 10616 ft 313 kts 102°
2026-05-05 07:57 53.41251 -6.39166 10861 ft 335 kts 102°
2026-05-05 07:57 53.40714 -6.35309 11442 ft 344 kts 102°
2026-05-05 07:57 53.40161 -6.31395 12250 ft 346 kts 102°
2026-05-05 07:57 53.39597 -6.27453 13046 ft 350 kts 103°
2026-05-05 07:58 53.39021 -6.23464 13841 ft 355 kts 103°
2026-05-05 07:58 53.38432 -6.19416 14563 ft 359 kts 103°
2026-05-05 07:58 53.37835 -6.15338 15300 ft 363 kts 103°
2026-05-05 07:58 53.37227 -6.11202 16051 ft 367 kts 103°
2026-05-05 07:59 53.36622 -6.07095 16796 ft 371 kts 103°
2026-05-05 07:59 53.35997 -6.02872 17551 ft 375 kts 104°
2026-05-05 07:59 53.35366 -5.98618 18293 ft 379 kts 104°
2026-05-05 07:59 53.34726 -5.94314 18906 ft 383 kts 104°
2026-05-05 08:00 53.34077 -5.89965 19538 ft 387 kts 104°
2026-05-05 08:00 53.33422 -5.85580 20173 ft 390 kts 104°
2026-05-05 08:00 53.32759 -5.81158 20814 ft 393 kts 104°
2026-05-05 08:00 53.32089 -5.76704 21438 ft 397 kts 104°
2026-05-05 08:01 53.31412 -5.72208 22068 ft 399 kts 104°
2026-05-05 08:01 53.30733 -5.67717 22800 ft 398 kts 105°
2026-05-05 08:01 53.30057 -5.63251 23054 ft 395 kts 105°
2026-05-05 08:01 53.29380 -5.58789 23069 ft 398 kts 105°
2026-05-05 08:02 53.28699 -5.54318 23064 ft 397 kts 105°
2026-05-05 08:02 53.28036 -5.49853 23066 ft 396 kts 101°
2026-05-05 08:02 53.27750 -5.45248 23272 ft 401 kts 92°
2026-05-05 08:02 53.27664 -5.40604 24002 ft 398 kts 91°
2026-05-05 08:03 53.27591 -5.36024 24797 ft 392 kts 92°
2026-05-05 08:03 53.27498 -5.31489 25525 ft 389 kts 92°
2026-05-05 08:03 53.27382 -5.26993 26195 ft 387 kts 93°
2026-05-05 08:03 53.27251 -5.22537 26814 ft 384 kts 93°
2026-05-05 08:04 53.27114 -5.18049 27069 ft 389 kts 93°
2026-05-05 08:04 53.26968 -5.13491 27069 ft 393 kts 94°
2026-05-05 08:04 53.26818 -5.08967 27062 ft 390 kts 94°
2026-05-05 08:04 53.26667 -5.04437 27064 ft 387 kts 94°
2026-05-05 08:05 53.26517 -4.99976 27061 ft 383 kts 94°
2026-05-05 08:05 53.26366 -4.95539 27073 ft 383 kts 94°
2026-05-05 08:05 53.26214 -4.91091 27078 ft 383 kts 94°
2026-05-05 08:05 53.26061 -4.86654 27080 ft 383 kts 94°
2026-05-05 08:06 53.25907 -4.82196 27079 ft 384 kts 94°
2026-05-05 08:06 53.25751 -4.77764 27079 ft 384 kts 94°
2026-05-05 08:06 53.25591 -4.73288 27079 ft 385 kts 94°
2026-05-05 08:06 53.25438 -4.68826 27076 ft 385 kts 94°
2026-05-05 08:07 53.25288 -4.64369 27077 ft 385 kts 94°
2026-05-05 08:07 53.25138 -4.59900 27077 ft 385 kts 94°
2026-05-05 08:07 53.24986 -4.55438 27076 ft 385 kts 94°
2026-05-05 08:07 53.24835 -4.51036 27075 ft 385 kts 94°
2026-05-05 08:08 53.24679 -4.46558 27077 ft 385 kts 94°
2026-05-05 08:08 53.24521 -4.42100 27077 ft 385 kts 94°
2026-05-05 08:08 53.24362 -4.37652 27073 ft 384 kts 94°
2026-05-05 08:08 53.24202 -4.33220 27076 ft 384 kts 94°
2026-05-05 08:09 53.24040 -4.28754 27073 ft 383 kts 94°
2026-05-05 08:09 53.23876 -4.24320 27073 ft 383 kts 94°
2026-05-05 08:09 53.23711 -4.19888 27074 ft 382 kts 94°
2026-05-05 08:09 53.23545 -4.15473 27073 ft 381 kts 94°
2026-05-05 08:10 53.23378 -4.11053 27072 ft 381 kts 94°
2026-05-05 08:10 53.23210 -4.06642 27070 ft 381 kts 94°
2026-05-05 08:10 53.23040 -4.02244 27069 ft 381 kts 94°
2026-05-05 08:10 53.22867 -3.97827 27070 ft 381 kts 94°
2026-05-05 08:11 53.22689 -3.93421 27064 ft 381 kts 94°
2026-05-05 08:11 53.22507 -3.89000 27064 ft 381 kts 94°
2026-05-05 08:11 53.22324 -3.84596 27064 ft 381 kts 94°
2026-05-05 08:11 53.22139 -3.80169 27063 ft 381 kts 94°
2026-05-05 08:12 53.21955 -3.75767 27057 ft 379 kts 94°
2026-05-05 08:12 53.21771 -3.71404 27048 ft 376 kts 94°
2026-05-05 08:12 53.21586 -3.67057 27054 ft 375 kts 95°
2026-05-05 08:12 53.21399 -3.62717 27061 ft 377 kts 95°
2026-05-05 08:13 53.21205 -3.58299 26585 ft 384 kts 95°
2026-05-05 08:13 53.21010 -3.53885 26223 ft 380 kts 95°
2026-05-05 08:13 53.20815 -3.49499 25831 ft 378 kts 95°
2026-05-05 08:13 53.20620 -3.45140 25455 ft 375 kts 95°
2026-05-05 08:14 53.20424 -3.40815 25083 ft 373 kts 95°
2026-05-05 08:14 53.20229 -3.36508 24721 ft 372 kts 95°
2026-05-05 08:14 53.20033 -3.32204 24365 ft 371 kts 95°
2026-05-05 08:14 53.19834 -3.27912 23991 ft 371 kts 95°
2026-05-05 08:15 53.19622 -3.23632 23624 ft 369 kts 98°
2026-05-05 08:15 53.19070 -3.19490 23187 ft 365 kts 110°
2026-05-05 08:15 53.18100 -3.15608 22798 ft 360 kts 121°
2026-05-05 08:15 53.16824 -3.12113 22452 ft 355 kts 124°
2026-05-05 08:16 53.15471 -3.08624 22079 ft 352 kts 125°
2026-05-05 08:16 53.14143 -3.05217 21735 ft 349 kts 125°
2026-05-05 08:16 53.12836 -3.01835 21381 ft 346 kts 124°
2026-05-05 08:16 53.11546 -2.98460 21037 ft 344 kts 124°
2026-05-05 08:17 53.10267 -2.95105 20693 ft 342 kts 124°
2026-05-05 08:17 53.09014 -2.91817 20365 ft 340 kts 124°
2026-05-05 08:17 53.07936 -2.88262 20019 ft 341 kts 112°
2026-05-05 08:17 53.07306 -2.84527 19688 ft 341 kts 101°
2026-05-05 08:18 53.06965 -2.80628 19360 ft 341 kts 98°
2026-05-05 08:18 53.06673 -2.76721 19017 ft 341 kts 98°
2026-05-05 08:18 53.06386 -2.72793 18679 ft 341 kts 98°
2026-05-05 08:18 53.06092 -2.68880 18334 ft 342 kts 98°
2026-05-05 08:19 53.05788 -2.64956 17946 ft 342 kts 98°
2026-05-05 08:19 53.05479 -2.61045 17576 ft 342 kts 99°
2026-05-05 08:19 53.05159 -2.57077 17216 ft 341 kts 99°
2026-05-05 08:19 53.04848 -2.53246 16871 ft 339 kts 99°
2026-05-05 08:20 53.04530 -2.49358 16527 ft 338 kts 98°
2026-05-05 08:20 53.04212 -2.45500 16192 ft 336 kts 98°
2026-05-05 08:20 53.03896 -2.41661 15858 ft 335 kts 98°
2026-05-05 08:20 53.03580 -2.37847 15517 ft 333 kts 98°
2026-05-05 08:21 53.03263 -2.34048 15191 ft 331 kts 98°
2026-05-05 08:21 53.02971 -2.30271 14862 ft 329 kts 94°
2026-05-05 08:21 53.02999 -2.26508 14538 ft 327 kts 86°
2026-05-05 08:21 53.03176 -2.22735 14217 ft 325 kts 85°
2026-05-05 08:22 53.03365 -2.19015 13894 ft 323 kts 85°
2026-05-05 08:22 53.03542 -2.15309 13536 ft 321 kts 85°
2026-05-05 08:22 53.03705 -2.11616 13195 ft 319 kts 85°
2026-05-05 08:22 53.03857 -2.07954 12855 ft 317 kts 86°
2026-05-05 08:23 53.04001 -2.04326 12538 ft 314 kts 86°
2026-05-05 08:23 53.04141 -2.00721 12222 ft 311 kts 86°
2026-05-05 08:23 53.04278 -1.97142 11910 ft 309 kts 86°
2026-05-05 08:23 53.04413 -1.93594 11600 ft 307 kts 86°
2026-05-05 08:24 53.04546 -1.90068 11295 ft 305 kts 86°
2026-05-05 08:24 53.04677 -1.86570 10993 ft 303 kts 86°
2026-05-05 08:24 53.04807 -1.83100 10692 ft 301 kts 86°
2026-05-05 08:24 53.04936 -1.79616 10382 ft 300 kts 86°
2026-05-05 08:25 53.05063 -1.76175 10088 ft 298 kts 86°
2026-05-05 08:25 53.05187 -1.72779 9955 ft 289 kts 86°
2026-05-05 08:25 53.05308 -1.69411 9490 ft 293 kts 86°
2026-05-05 08:25 53.05417 -1.66041 9174 ft 291 kts 88°
2026-05-05 08:26 53.05437 -1.62695 8862 ft 289 kts 90°
2026-05-05 08:26 53.05424 -1.59356 8573 ft 287 kts 90°
2026-05-05 08:26 53.05408 -1.56040 8273 ft 285 kts 90°
2026-05-05 08:26 53.05395 -1.52755 7983 ft 283 kts 90°
2026-05-05 08:27 53.05385 -1.49492 7700 ft 281 kts 90°
2026-05-05 08:27 53.05378 -1.46257 7420 ft 279 kts 90°
2026-05-05 08:27 53.05372 -1.43039 7141 ft 278 kts 90°
2026-05-05 08:27 53.05364 -1.39833 6846 ft 276 kts 90°
2026-05-05 08:28 53.05356 -1.36642 6567 ft 275 kts 90°
2026-05-05 08:28 53.05318 -1.33507 6263 ft 267 kts 97°
2026-05-05 08:28 53.04654 -1.30736 6022 ft 255 kts 127°
2026-05-05 08:28 53.03388 -1.28766 5756 ft 245 kts 147°
2026-05-05 08:29 53.01972 -1.27277 5533 ft 238 kts 149°
2026-05-05 08:29 53.00573 -1.25855 5275 ft 234 kts 149°
2026-05-05 08:29 52.99177 -1.24435 5060 ft 237 kts 149°
2026-05-05 08:30 52.96350 -1.21544 4567 ft 239 kts 148°
2026-05-05 08:30 52.94942 -1.20097 4313 ft 237 kts 148°
2026-05-05 08:30 52.93541 -1.18656 4071 ft 236 kts 148°
2026-05-05 08:30 52.92155 -1.17226 3851 ft 231 kts 148°
2026-05-05 08:31 52.90831 -1.15861 3614 ft 218 kts 148°
2026-05-05 08:31 52.89580 -1.14569 3397 ft 206 kts 148°
2026-05-05 08:31 52.88400 -1.13358 3212 ft 194 kts 148°
2026-05-05 08:31 52.87270 -1.12193 2984 ft 187 kts 147°
2026-05-05 08:32 52.86181 -1.11095 2782 ft 180 kts 148°
2026-05-05 08:32 52.84996 -1.10600 2576 ft 180 kts 192°
2026-05-05 08:32 52.84004 -1.11720 2473 ft 177 kts 242°
2026-05-05 08:32 52.83672 -1.13664 2292 ft 176 kts 265°
2026-05-05 08:33 52.83560 -1.14978 2220 ft 170 kts 264°
2026-05-05 08:33 52.83400 -1.17503 1963 ft 155 kts 269°
2026-05-05 08:33 52.83354 -1.19298 1730 ft 157 kts 271°
2026-05-05 08:33 52.83324 -1.21058 1512 ft 149 kts 271°
2026-05-05 08:34 52.83302 -1.22182 1392 ft 148 kts 270°
2026-05-05 08:34 52.83268 -1.23909 1159 ft 154 kts 271°
2026-05-05 08:34 52.83229 -1.25669 963 ft 153 kts 270°
2026-05-05 08:34 52.83193 -1.27419 727 ft 150 kts 269°
2026-05-05 08:35 52.83154 -1.29671 463 ft 147 kts 269°
2026-05-05 08:35 52.83125 -1.31352 298 ft 144 kts 269°
2026-05-05 08:35 52.83104 -1.32369 299 ft 112 kts 268°
2026-05-05 08:35 52.83091 -1.33295 310 ft 55 kts 268°
2026-05-05 08:36 52.83074 -1.33704 309 ft 13 kts 236°
2026-05-05 08:36 52.83012 -1.33730 310 ft 11 kts 179°
2026-05-05 08:36 52.82930 -1.33702 308 ft 14 kts 132°
2026-05-05 08:36 52.82917 -1.33535 307 ft 10 kts 87°
2026-05-05 08:37 52.82921 -1.33410 307 ft 11 kts 86°
2026-05-05 08:37 52.82926 -1.33284 305 ft 11 kts 86°
2026-05-05 08:37 52.82929 -1.33161 304 ft 11 kts 94°
2026-05-05 08:37 52.82928 -1.33039 303 ft 11 kts 89°
2026-05-05 08:38 52.82929 -1.32893 303 ft 15 kts 89°
2026-05-05 08:38 52.82932 -1.32698 301 ft 19 kts 88°
2026-05-05 08:38 52.82937 -1.32454 300 ft 23 kts 88°
2026-05-05 08:38 52.82942 -1.32230 299 ft 9 kts 89°
2026-05-05 08:39 52.82903 -1.32158 298 ft 9 kts 172°
2026-05-05 08:39 52.82842 -1.32142 298 ft 9 kts 177°
2026-05-05 08:39 52.82799 -1.32142 298 ft 0 kts 179°